Time,TemperatureF,DewpointF,PressureIn,WindDirection,WindDirectionDegrees,WindSpeedMPH,WindSpeedGustMPH,Humidity,HourlyPrecipIn,Conditions,Clouds,dailyrainin,SolarRadiationWatts/m^2,SoftwareType,DateUTC
2013-06-12 00:01:00,68.8,58.2,29.70,North,360,2.0,2.0,69,0.00,,,0.00,0,Wunderground v.1.15,2013-06-12 04:01:00,
2013-06-12 00:02:00,68.8,58.2,29.70,North,360,2.0,2.0,69,0.00,,,0.00,0,Wunderground v.1.15,2013-06-12 04:02:00,
2013-06-12 00:07:00,68.9,57.5,29.70,North,360,2.0,3.0,67,0.00,,,0.00,0,Wunderground v.1.15,2013-06-12 04:07:00,
2013-06-12 00:12:00,69.1,57.3,29.70,North,360,2.0,4.0,66,0.00,,,0.00,0,Wunderground v.1.15,2013-06-12 04:12:00,
2013-06-12 00:19:00,69.1,57.3,29.71,North,360,2.0,3.0,66,0.00,,,0.00,0,Wunderground v.1.15,2013-06-12 04:19:00,
2013-06-12 00:24:00,69.1,57.3,29.71,North,360,2.0,4.0,66,0.00,,,0.00,0,Wunderground v.1.15,2013-06-12 04:24:00,
2013-06-12 00:30:00,69.1,57.3,29.70,North,360,1.0,2.0,66,0.00,,,0.00,0,Wunderground v.1.15,2013-06-12 04:30:00,
2013-06-12 00:36:00,68.9,57.1,29.70,North,360,0.0,2.0,66,0.00,,,0.00,0,Wunderground v.1.15,2013-06-12 04:36:00,
2013-06-12 00:42:00,68.8,57.0,29.70,North,360,1.0,3.0,66,0.00,,,0.00,0,Wunderground v.1.15,2013-06-12 04:42:00,
2013-06-12 00:44:00,68.8,57.0,29.70,North,360,1.0,3.0,66,0.00,,,0.00,0,Wunderground v.1.15,2013-06-12 04:44:00,
2013-06-12 00:50:00,68.8,57.0,29.70,North,360,1.0,1.0,66,0.00,,,0.00,0,Wunderground v.1.15,2013-06-12 04:50:00,
2013-06-12 00:56:00,68.8,57.0,29.70,North,360,0.0,1.0,66,0.00,,,0.00,0,Wunderground v.1.15,2013-06-12 04:56:00,
2013-06-12 01:02:00,68.8,57.0,29.69,North,360,0.0,1.0,66,0.00,,,0.00,0,Wunderground v.1.15,2013-06-12 05:02:00,
2013-06-12 01:09:00,68.6,57.2,29.69,North,360,0.0,0.0,67,0.00,,,0.00,0,Wunderground v.1.15,2013-06-12 05:09:00,
2013-06-12 01:17:00,68.4,57.0,29.70,North,360,0.0,0.0,67,0.00,,,0.00,0,Wunderground v.1.15,2013-06-12 05:17:00,
2013-06-12 01:23:00,68.3,57.3,29.70,North,360,0.0,0.0,68,0.00,,,0.00,0,Wunderground v.1.15,2013-06-12 05:23:00,
2013-06-12 01:31:00,68.1,57.5,29.69,North,360,0.0,0.0,69,0.00,,,0.00,0,Wunderground v.1.15,2013-06-12 05:31:00,
2013-06-12 01:37:00,67.9,57.8,29.69,North,360,0.0,0.0,70,0.00,,,0.00,0,Wunderground v.1.15,2013-06-12 05:37:00,
2013-06-12 01:43:00,67.8,57.7,29.69,North,360,0.0,0.0,70,0.00,,,0.00,0,Wunderground v.1.15,2013-06-12 05:43:00,
2013-06-12 01:51:00,67.6,57.5,29.69,North,360,0.0,0.0,70,0.00,,,0.00,0,Wunderground v.1.15,2013-06-12 05:51:00,
2013-06-12 01:57:00,67.4,57.7,29.69,North,360,0.0,0.0,71,0.00,,,0.00,0,Wunderground v.1.15,2013-06-12 05:57:00,
2013-06-12 02:03:00,67.3,58.0,29.69,North,360,0.0,0.0,72,0.00,,,0.00,0,Wunderground v.1.15,2013-06-12 06:03:00,
2013-06-12 02:11:00,67.1,58.2,29.69,North,360,0.0,0.0,73,0.00,,,0.00,0,Wunderground v.1.15,2013-06-12 06:11:00,
2013-06-12 02:17:00,66.9,58.0,29.69,North,360,0.0,0.0,73,0.00,,,0.00,0,Wunderground v.1.15,2013-06-12 06:17:00,
2013-06-12 02:23:00,66.8,58.2,29.69,North,360,0.0,0.0,74,0.00,,,0.00,0,Wunderground v.1.15,2013-06-12 06:23:00,
2013-06-12 02:30:00,66.6,58.1,29.69,North,360,0.0,0.0,74,0.00,,,0.00,0,Wunderground v.1.15,2013-06-12 06:30:00,
2013-06-12 02:35:00,66.4,57.9,29.69,North,360,0.0,0.0,74,0.00,,,0.00,0,Wunderground v.1.15,2013-06-12 06:35:00,
2013-06-12 02:41:00,66.3,58.1,29.69,North,360,0.0,0.0,75,0.00,,,0.00,0,Wunderground v.1.15,2013-06-12 06:41:00,
2013-06-12 02:47:00,66.3,58.5,29.69,North,360,0.0,0.0,76,0.00,,,0.00,0,Wunderground v.1.15,2013-06-12 06:47:00,
2013-06-12 02:53:00,66.1,58.7,29.69,North,360,0.0,0.0,77,0.00,,,0.00,0,Wunderground v.1.15,2013-06-12 06:53:00,
2013-06-12 02:59:00,65.8,58.4,29.68,North,360,0.0,2.0,77,0.00,,,0.00,0,Wunderground v.1.15,2013-06-12 06:59:00,
2013-06-12 03:04:00,65.8,58.4,29.68,North,360,1.0,3.0,77,0.00,,,0.00,0,Wunderground v.1.15,2013-06-12 07:04:00,
2013-06-12 03:11:00,65.8,58.0,29.68,North,360,1.0,3.0,76,0.00,,,0.00,0,Wunderground v.1.15,2013-06-12 07:11:00,
2013-06-12 03:16:00,66.1,57.9,29.69,North,360,1.0,1.0,75,0.00,,,0.00,0,Wunderground v.1.15,2013-06-12 07:16:00,
2013-06-12 03:22:00,66.3,57.8,29.69,North,360,1.0,1.0,74,0.00,,,0.00,0,Wunderground v.1.15,2013-06-12 07:22:00,
2013-06-12 03:29:00,66.4,57.5,29.69,North,360,1.0,2.0,73,0.00,,,0.00,0,Wunderground v.1.15,2013-06-12 07:29:00,
2013-06-12 03:34:00,66.6,57.7,29.69,North,360,1.0,3.0,73,0.00,,,0.00,0,Wunderground v.1.15,2013-06-12 07:34:00,
2013-06-12 03:40:00,66.8,57.5,29.69,North,360,1.0,1.0,72,0.00,,,0.00,0,Wunderground v.1.15,2013-06-12 07:40:00,
2013-06-12 03:46:00,66.8,57.5,29.69,North,360,1.0,1.0,72,0.00,,,0.00,0,Wunderground v.1.15,2013-06-12 07:46:00,
2013-06-12 03:52:00,66.8,57.1,29.69,North,360,1.0,1.0,71,0.00,,,0.00,0,Wunderground v.1.15,2013-06-12 07:52:00,
2013-06-12 03:59:00,66.8,57.1,29.69,North,360,2.0,2.0,71,0.00,,,0.00,0,Wunderground v.1.15,2013-06-12 07:59:00,
2013-06-12 04:04:00,66.8,56.7,29.69,North,360,1.0,2.0,70,0.00,,,0.00,0,Wunderground v.1.15,2013-06-12 08:04:00,
2013-06-12 04:10:00,66.6,56.1,29.69,North,360,2.0,3.0,69,0.00,,,0.00,0,Wunderground v.1.15,2013-06-12 08:10:00,
2013-06-12 04:20:00,66.8,55.5,29.71,North,360,3.0,3.0,67,0.00,,,0.00,0,Wunderground v.1.15,2013-06-12 08:20:00,
2013-06-12 04:25:00,66.8,55.1,29.71,North,360,3.0,4.0,66,0.00,,,0.00,0,Wunderground v.1.15,2013-06-12 08:25:00,
2013-06-12 04:31:00,66.8,54.2,29.71,North,360,3.0,4.0,64,0.00,,,0.00,0,Wunderground v.1.15,2013-06-12 08:31:00,
2013-06-12 04:37:00,66.9,53.9,29.71,North,360,4.0,7.0,63,0.00,,,0.00,0,Wunderground v.1.15,2013-06-12 08:37:00,
2013-06-12 04:43:00,66.8,53.8,29.71,North,360,3.0,4.0,63,0.00,,,0.00,0,Wunderground v.1.15,2013-06-12 08:43:00,
2013-06-12 04:50:00,66.6,53.2,29.71,North,360,3.0,4.0,62,0.00,,,0.00,0,Wunderground v.1.15,2013-06-12 08:50:00,
2013-06-12 04:57:00,66.4,53.4,29.71,North,360,3.0,3.0,63,0.00,,,0.00,0,Wunderground v.1.15,2013-06-12 08:57:00,
2013-06-12 05:03:00,66.3,52.9,29.72,North,360,3.0,4.0,62,0.00,,,0.00,0,Wunderground v.1.15,2013-06-12 09:03:00,
2013-06-12 05:10:00,66.1,53.1,29.72,North,360,3.0,3.0,63,0.00,,,0.00,0,Wunderground v.1.15,2013-06-12 09:10:00,
2013-06-12 05:15:00,65.8,51.1,29.73,North,360,2.0,8.0,59,0.00,,,0.00,0,Wunderground v.1.15,2013-06-12 09:15:00,
2013-06-12 05:21:00,65.8,52.0,29.73,North,360,4.0,8.0,61,0.00,,,0.00,0,Wunderground v.1.15,2013-06-12 09:21:00,
2013-06-12 05:27:00,65.6,52.2,29.73,North,360,4.0,4.0,62,0.00,,,0.00,5,Wunderground v.1.15,2013-06-12 09:27:00,
2013-06-12 05:33:00,65.5,52.1,29.74,North,360,3.0,4.0,62,0.00,,,0.00,9,Wunderground v.1.15,2013-06-12 09:33:00,
2013-06-12 05:41:00,65.2,52.3,29.74,North,360,2.0,5.0,63,0.00,,,0.00,12,Wunderground v.1.15,2013-06-12 09:41:00,
2013-06-12 05:47:00,65.0,52.5,29.74,North,360,2.0,2.0,64,0.00,,,0.00,14,Wunderground v.1.15,2013-06-12 09:47:00,
2013-06-12 05:53:00,64.8,52.3,29.74,North,360,2.0,5.0,64,0.00,,,0.00,18,Wunderground v.1.15,2013-06-12 09:53:00,
2013-06-12 05:59:00,64.7,52.2,29.74,North,360,2.0,3.0,64,0.00,,,0.00,25,Wunderground v.1.15,2013-06-12 09:59:00,
2013-06-12 06:06:00,64.5,52.5,29.74,North,360,2.0,2.0,65,0.00,,,0.00,21,Wunderground v.1.15,2013-06-12 10:06:00,
2013-06-12 06:12:00,64.5,52.5,29.74,North,360,2.0,6.0,65,0.00,,,0.00,26,Wunderground v.1.15,2013-06-12 10:12:00,
2013-06-12 06:19:00,64.5,52.5,29.74,North,360,2.0,3.0,65,0.00,,,0.00,90,Wunderground v.1.15,2013-06-12 10:19:00,
2013-06-12 06:26:00,64.5,52.0,29.74,North,360,2.0,2.0,64,0.00,,,0.00,105,Wunderground v.1.15,2013-06-12 10:26:00,
2013-06-12 06:32:00,64.5,52.0,29.74,North,360,2.0,5.0,64,0.00,,,0.00,40,Wunderground v.1.15,2013-06-12 10:32:00,
2013-06-12 06:40:00,64.5,52.0,29.74,North,360,2.0,2.0,64,0.00,,,0.00,139,Wunderground v.1.15,2013-06-12 10:40:00,
2013-06-12 06:46:00,64.7,52.2,29.74,North,360,2.0,6.0,64,0.00,,,0.00,81,Wunderground v.1.15,2013-06-12 10:46:00,
2013-06-12 06:52:00,64.8,52.3,29.74,North,360,2.0,6.0,64,0.00,,,0.00,179,Wunderground v.1.15,2013-06-12 10:52:00,
2013-06-12 06:59:00,64.8,51.9,29.74,North,360,2.0,2.0,63,0.00,,,0.00,257,Wunderground v.1.15,2013-06-12 10:59:00,
2013-06-12 07:04:00,65.0,51.7,29.75,North,360,3.0,3.0,62,0.00,,,0.00,135,Wunderground v.1.15,2013-06-12 11:04:00,
2013-06-12 07:10:00,65.3,51.9,29.75,North,360,3.0,4.0,62,0.00,,,0.00,109,Wunderground v.1.15,2013-06-12 11:10:00,
2013-06-12 07:15:00,65.3,51.9,29.75,North,360,2.0,4.0,62,0.00,,,0.00,104,Wunderground v.1.15,2013-06-12 11:15:00,
2013-06-12 07:21:00,65.2,51.4,29.75,North,360,3.0,4.0,61,0.00,,,0.00,100,Wunderground v.1.15,2013-06-12 11:21:00,
2013-06-12 07:27:00,65.0,51.2,29.75,North,360,3.0,3.0,61,0.00,,,0.00,123,Wunderground v.1.15,2013-06-12 11:27:00,
2013-06-12 07:33:00,65.0,51.2,29.76,North,360,3.0,6.0,61,0.00,,,0.00,121,Wunderground v.1.15,2013-06-12 11:33:00,
2013-06-12 07:40:00,64.8,51.0,29.76,North,360,3.0,4.0,61,0.00,,,0.00,139,Wunderground v.1.15,2013-06-12 11:40:00,
2013-06-12 07:45:00,64.8,51.0,29.76,North,360,3.0,5.0,61,0.00,,,0.00,125,Wunderground v.1.15,2013-06-12 11:45:00,
2013-06-12 07:51:00,64.8,51.0,29.76,North,360,3.0,5.0,61,0.00,,,0.00,139,Wunderground v.1.15,2013-06-12 11:51:00,
2013-06-12 07:57:00,64.8,51.0,29.76,North,360,3.0,3.0,61,0.00,,,0.00,121,Wunderground v.1.15,2013-06-12 11:57:00,
2013-06-12 08:03:00,65.0,51.7,29.76,North,360,3.0,3.0,62,0.00,,,0.00,264,Wunderground v.1.15,2013-06-12 12:03:00,
2013-06-12 08:10:00,65.3,51.1,29.76,North,360,3.0,5.0,60,0.00,,,0.00,197,Wunderground v.1.15,2013-06-12 12:10:00,
2013-06-12 08:15:00,65.6,50.9,29.77,North,360,3.0,3.0,59,0.00,,,0.00,220,Wunderground v.1.15,2013-06-12 12:15:00,
2013-06-12 08:21:00,66.0,51.3,29.77,North,360,3.0,11.0,59,0.00,,,0.00,232,Wunderground v.1.15,2013-06-12 12:21:00,
2013-06-12 08:27:00,66.4,50.7,29.77,North,360,4.0,4.0,57,0.00,,,0.00,478,Wunderground v.1.15,2013-06-12 12:27:00,
2013-06-12 08:33:00,66.9,50.7,29.77,North,360,5.0,5.0,56,0.00,,,0.00,480,Wunderground v.1.15,2013-06-12 12:33:00,
2013-06-12 08:39:00,67.3,51.1,29.77,North,360,4.0,6.0,56,0.00,,,0.00,246,Wunderground v.1.15,2013-06-12 12:39:00,
2013-06-12 08:44:00,67.3,51.1,29.77,North,360,4.0,6.0,56,0.00,,,0.00,529,Wunderground v.1.15,2013-06-12 12:44:00,
2013-06-12 08:51:00,67.4,51.2,29.77,North,360,4.0,5.0,56,0.00,,,0.00,536,Wunderground v.1.15,2013-06-12 12:51:00,
2013-06-12 08:57:00,67.6,50.9,29.77,North,360,4.0,5.0,55,0.00,,,0.00,527,Wunderground v.1.15,2013-06-12 12:57:00,
2013-06-12 09:02:00,67.8,50.5,29.77,North,360,6.0,9.0,54,0.00,,,0.00,536,Wunderground v.1.15,2013-06-12 13:02:00,
2013-06-12 09:09:00,67.9,50.6,29.77,North,360,6.0,6.0,54,0.00,,,0.00,570,Wunderground v.1.15,2013-06-12 13:09:00,
2013-06-12 09:16:00,67.8,50.5,29.77,North,360,7.0,7.0,54,0.00,,,0.00,615,Wunderground v.1.15,2013-06-12 13:16:00,
2013-06-12 09:22:00,68.4,51.6,29.77,North,360,4.0,7.0,55,0.00,,,0.00,684,Wunderground v.1.15,2013-06-12 13:22:00,
2013-06-12 09:29:00,68.9,51.6,29.77,North,360,3.0,3.0,54,0.00,,,0.00,608,Wunderground v.1.15,2013-06-12 13:29:00,
2013-06-12 09:34:00,69.4,51.5,29.77,North,360,3.0,9.0,53,0.00,,,0.00,258,Wunderground v.1.15,2013-06-12 13:34:00,
2013-06-12 09:40:00,69.3,50.9,29.77,North,360,4.0,4.0,52,0.00,,,0.00,766,Wunderground v.1.15,2013-06-12 13:40:00,
2013-06-12 09:46:00,68.8,50.5,29.77,North,360,6.0,7.0,52,0.00,,,0.00,427,Wunderground v.1.15,2013-06-12 13:46:00,
2013-06-12 09:52:00,69.1,51.2,29.77,North,360,5.0,7.0,53,0.00,,,0.00,740,Wunderground v.1.15,2013-06-12 13:52:00,
2013-06-12 09:59:00,69.4,51.5,29.77,North,360,4.0,9.0,53,0.00,,,0.00,789,Wunderground v.1.15,2013-06-12 13:59:00,
2013-06-12 10:04:00,69.4,50.5,29.77,North,360,4.0,9.0,51,0.00,,,0.00,200,Wunderground v.1.15,2013-06-12 14:04:00,
2013-06-12 10:11:00,69.6,51.2,29.77,North,360,5.0,5.0,52,0.00,,,0.00,773,Wunderground v.1.15,2013-06-12 14:11:00,
2013-06-12 10:17:00,69.6,51.2,29.77,North,360,4.0,4.0,52,0.00,,,0.00,802,Wunderground v.1.15,2013-06-12 14:17:00,
2013-06-12 10:23:00,70.4,51.9,29.77,North,360,3.0,4.0,52,0.00,,,0.00,846,Wunderground v.1.15,2013-06-12 14:23:00,
2013-06-12 10:30:00,70.9,51.3,29.77,North,360,3.0,4.0,50,0.00,,,0.00,921,Wunderground v.1.15,2013-06-12 14:30:00,
2013-06-12 10:35:00,70.9,51.3,29.77,North,360,4.0,6.0,50,0.00,,,0.00,823,Wunderground v.1.15,2013-06-12 14:35:00,
2013-06-12 10:41:00,71.5,52.9,29.77,North,360,4.0,4.0,52,0.00,,,0.00,805,Wunderground v.1.15,2013-06-12 14:41:00,
2013-06-12 10:47:00,71.6,50.9,29.77,North,360,3.0,3.0,48,0.00,,,0.00,311,Wunderground v.1.15,2013-06-12 14:47:00,
2013-06-12 10:53:00,70.9,51.3,29.77,North,360,4.0,6.0,50,0.00,,,0.00,237,Wunderground v.1.15,2013-06-12 14:53:00,
2013-06-12 11:00:00,71.5,50.8,29.78,North,360,5.0,7.0,48,0.00,,,0.00,791,Wunderground v.1.15,2013-06-12 15:00:00,
2013-06-12 11:07:00,71.5,51.3,29.78,North,360,7.0,7.0,49,0.00,,,0.00,782,Wunderground v.1.15,2013-06-12 15:07:00,
2013-06-12 11:13:00,71.6,51.4,29.78,North,360,7.0,7.0,49,0.00,,,0.00,868,Wunderground v.1.15,2013-06-12 15:13:00,
2013-06-12 11:21:00,72.0,51.2,29.78,North,360,7.0,8.0,48,0.00,,,0.00,889,Wunderground v.1.15,2013-06-12 15:21:00,
2013-06-12 11:27:00,72.3,52.1,29.78,North,360,5.0,5.0,49,0.00,,,0.00,165,Wunderground v.1.15,2013-06-12 15:27:00,
2013-06-12 11:33:00,72.8,50.8,29.78,North,360,3.0,6.0,46,0.00,,,0.00,179,Wunderground v.1.15,2013-06-12 15:33:00,
2013-06-12 11:39:00,72.7,50.7,29.78,North,360,6.0,10.0,46,0.00,,,0.00,276,Wunderground v.1.15,2013-06-12 15:39:00,
2013-06-12 11:44:00,72.7,50.7,29.78,North,360,6.0,10.0,46,0.00,,,0.00,253,Wunderground v.1.15,2013-06-12 15:44:00,
2013-06-12 11:50:00,73.2,51.2,29.78,North,360,4.0,7.0,46,0.00,,,0.00,888,Wunderground v.1.15,2013-06-12 15:50:00,
2013-06-12 11:57:00,73.5,50.9,29.78,North,360,5.0,5.0,45,0.00,,,0.00,842,Wunderground v.1.15,2013-06-12 15:57:00,
2013-06-12 12:02:00,73.9,51.2,29.78,North,360,3.0,5.0,45,0.00,,,0.00,206,Wunderground v.1.15,2013-06-12 16:02:00,
2013-06-12 12:10:00,74.0,50.7,29.78,North,360,4.0,9.0,44,0.00,,,0.00,902,Wunderground v.1.15,2013-06-12 16:10:00,
2013-06-12 12:16:00,74.6,51.2,29.78,North,360,5.0,5.0,44,0.00,,,0.00,926,Wunderground v.1.15,2013-06-12 16:16:00,
2013-06-12 12:22:00,74.9,50.3,29.78,North,360,4.0,8.0,42,0.00,,,0.00,902,Wunderground v.1.15,2013-06-12 16:22:00,
2013-06-12 12:30:00,74.9,49.6,29.78,North,360,6.0,7.0,41,0.00,,,0.00,872,Wunderground v.1.15,2013-06-12 16:30:00,
2013-06-12 12:36:00,75.1,49.1,29.78,North,360,7.0,9.0,40,0.00,,,0.00,865,Wunderground v.1.15,2013-06-12 16:36:00,
2013-06-12 12:42:00,75.6,51.5,29.78,North,360,5.0,9.0,43,0.00,,,0.00,930,Wunderground v.1.15,2013-06-12 16:42:00,
2013-06-12 12:49:00,75.4,49.4,29.78,North,360,6.0,16.0,40,0.00,,,0.00,893,Wunderground v.1.15,2013-06-12 16:49:00,
2013-06-12 12:54:00,75.8,49.8,29.78,North,360,8.0,8.0,40,0.00,,,0.00,867,Wunderground v.1.15,2013-06-12 16:54:00,
2013-06-12 13:00:00,76.1,49.3,29.78,North,360,5.0,12.0,39,0.00,,,0.00,881,Wunderground v.1.15,2013-06-12 17:00:00,
2013-06-12 13:05:00,76.3,48.8,29.78,North,360,6.0,10.0,38,0.00,,,0.00,895,Wunderground v.1.15,2013-06-12 17:05:00,
2013-06-12 13:11:00,76.0,48.6,29.78,North,360,7.0,14.0,38,0.00,,,0.00,958,Wunderground v.1.15,2013-06-12 17:11:00,
2013-06-12 13:17:00,75.3,49.3,29.78,North,360,8.0,8.0,40,0.00,,,0.00,847,Wunderground v.1.15,2013-06-12 17:17:00,
2013-06-12 13:23:00,75.3,50.0,29.78,North,360,8.0,10.0,41,0.00,,,0.00,911,Wunderground v.1.15,2013-06-12 17:23:00,
2013-06-12 13:30:00,76.5,51.0,29.79,North,360,5.0,8.0,41,0.00,,,0.00,962,Wunderground v.1.15,2013-06-12 17:30:00,
2013-06-12 13:37:00,76.8,50.0,29.79,North,360,4.0,7.0,39,0.00,,,0.00,1055,Wunderground v.1.15,2013-06-12 17:37:00,
2013-06-12 13:43:00,77.0,49.4,29.79,North,360,4.0,7.0,38,0.00,,,0.00,262,Wunderground v.1.15,2013-06-12 17:43:00,
2013-06-12 13:51:00,76.5,49.0,29.79,North,360,5.0,5.0,38,0.00,,,0.00,691,Wunderground v.1.15,2013-06-12 17:51:00,
2013-06-12 13:57:00,76.5,50.4,29.79,North,360,5.0,5.0,40,0.00,,,0.00,714,Wunderground v.1.15,2013-06-12 17:57:00,
2013-06-12 14:03:00,76.5,51.0,29.79,North,360,5.0,12.0,41,0.00,,,0.00,925,Wunderground v.1.15,2013-06-12 18:03:00,
2013-06-12 14:09:00,76.7,50.6,29.79,North,360,5.0,6.0,40,0.00,,,0.00,299,Wunderground v.1.15,2013-06-12 18:09:00,
2013-06-12 14:15:00,76.1,50.0,29.80,North,360,6.0,12.0,40,0.00,,,0.00,272,Wunderground v.1.15,2013-06-12 18:15:00,
2013-06-12 14:21:00,75.3,50.0,29.80,North,360,9.0,11.0,41,0.00,,,0.00,258,Wunderground v.1.15,2013-06-12 18:21:00,
2013-06-12 14:27:00,74.7,48.8,29.80,North,360,8.0,8.0,40,0.00,,,0.00,404,Wunderground v.1.15,2013-06-12 18:27:00,
2013-06-12 14:33:00,75.3,50.0,29.81,North,360,6.0,8.0,41,0.00,,,0.00,838,Wunderground v.1.15,2013-06-12 18:33:00,
2013-06-12 14:39:00,75.8,49.1,29.81,North,360,7.0,10.0,39,0.00,,,0.00,851,Wunderground v.1.15,2013-06-12 18:39:00,
2013-06-12 14:46:00,77.0,50.1,29.80,North,360,4.0,6.0,39,0.00,,,0.00,795,Wunderground v.1.15,2013-06-12 18:46:00,
2013-06-12 14:53:00,76.8,50.6,29.80,North,360,3.0,9.0,40,0.00,,,0.00,772,Wunderground v.1.15,2013-06-12 18:53:00,
2013-06-12 14:59:00,76.8,48.6,29.80,North,360,4.0,11.0,37,0.00,,,0.00,805,Wunderground v.1.15,2013-06-12 18:59:00,
2013-06-12 15:06:00,76.5,49.0,29.80,North,360,5.0,5.0,38,0.00,,,0.00,795,Wunderground v.1.15,2013-06-12 19:06:00,
2013-06-12 15:12:00,76.5,48.3,29.80,North,360,6.0,9.0,37,0.00,,,0.00,668,Wunderground v.1.15,2013-06-12 19:12:00,
2013-06-12 15:19:00,76.1,48.6,29.80,North,360,8.0,8.0,38,0.00,,,0.00,141,Wunderground v.1.15,2013-06-12 19:19:00,
2013-06-12 15:24:00,75.4,48.0,29.80,North,360,7.0,10.0,38,0.00,,,0.00,137,Wunderground v.1.15,2013-06-12 19:24:00,
2013-06-12 15:30:00,75.4,48.0,29.80,North,360,6.0,8.0,38,0.00,,,0.00,717,Wunderground v.1.15,2013-06-12 19:30:00,
2013-06-12 15:36:00,76.0,47.8,29.80,North,360,6.0,6.0,37,0.00,,,0.00,693,Wunderground v.1.15,2013-06-12 19:36:00,
2013-06-12 15:42:00,76.5,48.3,29.80,North,360,6.0,13.0,37,0.00,,,0.00,679,Wunderground v.1.15,2013-06-12 19:42:00,
2013-06-12 15:49:00,76.7,49.9,29.79,North,360,5.0,6.0,39,0.00,,,0.00,666,Wunderground v.1.15,2013-06-12 19:49:00,
2013-06-12 15:56:00,76.3,48.1,29.79,North,360,4.0,4.0,37,0.00,,,0.00,650,Wunderground v.1.15,2013-06-12 19:56:00,
2013-06-12 16:02:00,76.5,47.6,29.80,North,360,3.0,5.0,36,0.00,,,0.00,635,Wunderground v.1.15,2013-06-12 20:02:00,
2013-06-12 16:07:00,76.7,47.7,29.80,North,360,4.0,9.0,36,0.00,,,0.00,626,Wunderground v.1.15,2013-06-12 20:07:00,
2013-06-12 16:13:00,76.3,48.1,29.80,North,360,5.0,9.0,37,0.00,,,0.00,612,Wunderground v.1.15,2013-06-12 20:13:00,
2013-06-12 16:20:00,76.1,47.9,29.79,North,360,8.0,15.0,37,0.00,,,0.00,608,Wunderground v.1.15,2013-06-12 20:20:00,
2013-06-12 16:25:00,76.1,47.2,29.79,North,360,7.0,15.0,36,0.00,,,0.00,587,Wunderground v.1.15,2013-06-12 20:25:00,
2013-06-12 16:31:00,76.7,49.2,29.78,North,360,3.0,5.0,38,0.00,,,0.00,577,Wunderground v.1.15,2013-06-12 20:31:00,
2013-06-12 16:37:00,76.7,47.7,29.78,North,360,5.0,8.0,36,0.00,,,0.00,555,Wunderground v.1.15,2013-06-12 20:37:00,
2013-06-12 16:43:00,76.8,48.6,29.78,North,360,6.0,8.0,37,0.00,,,0.00,541,Wunderground v.1.15,2013-06-12 20:43:00,
2013-06-12 16:50:00,76.8,48.6,29.79,North,360,3.0,5.0,37,0.00,,,0.00,527,Wunderground v.1.15,2013-06-12 20:50:00,
2013-06-12 16:55:00,76.8,47.8,29.79,North,360,3.0,6.0,36,0.00,,,0.00,512,Wunderground v.1.15,2013-06-12 20:55:00,
2013-06-12 17:01:00,76.5,48.3,29.80,North,360,5.0,6.0,37,0.00,,,0.00,503,Wunderground v.1.15,2013-06-12 21:01:00,
2013-06-12 17:07:00,76.7,48.5,29.80,North,360,3.0,4.0,37,0.00,,,0.00,503,Wunderground v.1.15,2013-06-12 21:07:00,
2013-06-12 17:13:00,76.3,49.5,29.80,North,360,4.0,4.0,39,0.00,,,0.00,497,Wunderground v.1.15,2013-06-12 21:13:00,
2013-06-12 17:19:00,76.7,49.2,29.80,North,360,3.0,6.0,38,0.00,,,0.00,473,Wunderground v.1.15,2013-06-12 21:19:00,
2013-06-12 17:24:00,76.5,48.3,29.80,North,360,4.0,6.0,37,0.00,,,0.00,462,Wunderground v.1.15,2013-06-12 21:24:00,
2013-06-12 17:31:00,76.5,49.7,29.81,North,360,3.0,4.0,39,0.00,,,0.00,429,Wunderground v.1.15,2013-06-12 21:31:00,
2013-06-12 17:37:00,76.7,49.2,29.81,North,360,2.0,4.0,38,0.00,,,0.00,406,Wunderground v.1.15,2013-06-12 21:37:00,
2013-06-12 17:42:00,76.5,48.3,29.81,North,360,3.0,7.0,37,0.00,,,0.00,387,Wunderground v.1.15,2013-06-12 21:42:00,
2013-06-12 17:51:00,76.3,48.1,29.80,North,360,4.0,4.0,37,0.00,,,0.00,367,Wunderground v.1.15,2013-06-12 21:51:00,
2013-06-12 17:56:00,76.5,48.3,29.80,North,360,4.0,4.0,37,0.00,,,0.00,343,Wunderground v.1.15,2013-06-12 21:56:00,
2013-06-12 18:02:00,76.1,49.3,29.80,North,360,4.0,4.0,39,0.00,,,0.00,330,Wunderground v.1.15,2013-06-12 22:02:00,
2013-06-12 18:09:00,76.0,48.6,29.80,North,360,5.0,8.0,38,0.00,,,0.00,320,Wunderground v.1.15,2013-06-12 22:09:00,
2013-06-12 18:16:00,76.0,48.6,29.80,North,360,6.0,6.0,38,0.00,,,0.00,248,Wunderground v.1.15,2013-06-12 22:16:00,
2013-06-12 18:22:00,75.8,49.1,29.80,North,360,3.0,6.0,39,0.00,,,0.00,225,Wunderground v.1.15,2013-06-12 22:22:00,
2013-06-12 18:29:00,75.8,48.4,29.80,North,360,3.0,3.0,38,0.00,,,0.00,102,Wunderground v.1.15,2013-06-12 22:29:00,
2013-06-12 18:34:00,75.8,49.8,29.80,North,360,3.0,3.0,40,0.00,,,0.00,53,Wunderground v.1.15,2013-06-12 22:34:00,
2013-06-12 18:40:00,75.4,48.7,29.80,North,360,2.0,3.0,39,0.00,,,0.00,42,Wunderground v.1.15,2013-06-12 22:40:00,
2013-06-12 18:46:00,75.4,48.7,29.80,North,360,2.0,4.0,39,0.00,,,0.00,44,Wunderground v.1.15,2013-06-12 22:46:00,
2013-06-12 18:52:00,75.4,49.4,29.80,North,360,2.0,5.0,40,0.00,,,0.00,33,Wunderground v.1.15,2013-06-12 22:52:00,
2013-06-12 19:00:00,75.3,49.3,29.80,North,360,2.0,6.0,40,0.00,,,0.00,44,Wunderground v.1.15,2013-06-12 23:00:00,
2013-06-12 19:05:00,75.3,49.3,29.80,North,360,2.0,2.0,40,0.00,,,0.00,32,Wunderground v.1.15,2013-06-12 23:05:00,
2013-06-12 19:11:00,75.1,49.1,29.80,North,360,1.0,2.0,40,0.00,,,0.00,26,Wunderground v.1.15,2013-06-12 23:11:00,
2013-06-12 19:17:00,74.9,48.9,29.80,North,360,1.0,1.0,40,0.00,,,0.00,26,Wunderground v.1.15,2013-06-12 23:17:00,
2013-06-12 19:23:00,74.7,48.8,29.80,North,360,2.0,3.0,40,0.00,,,0.00,25,Wunderground v.1.15,2013-06-12 23:23:00,
2013-06-12 19:30:00,74.7,49.4,29.82,North,360,3.0,5.0,41,0.00,,,0.00,23,Wunderground v.1.15,2013-06-12 23:30:00,
2013-06-12 19:37:00,74.6,49.3,29.82,North,360,2.0,2.0,41,0.00,,,0.00,21,Wunderground v.1.15,2013-06-12 23:37:00,
2013-06-12 19:43:00,74.6,50.0,29.82,North,360,2.0,4.0,42,0.00,,,0.00,19,Wunderground v.1.15,2013-06-12 23:43:00,
2013-06-12 19:51:00,74.4,50.4,29.82,North,360,1.0,1.0,43,0.00,,,0.00,18,Wunderground v.1.15,2013-06-12 23:51:00,
2013-06-12 19:57:00,74.2,50.3,29.82,North,360,0.0,2.0,43,0.00,,,0.00,16,Wunderground v.1.15,2013-06-12 23:57:00,
2013-06-12 20:03:00,74.0,50.1,29.82,North,360,0.0,2.0,43,0.00,,,0.00,12,Wunderground v.1.15,2013-06-13 00:03:00,
2013-06-12 20:09:00,73.9,50.6,29.82,North,360,0.0,0.0,44,0.00,,,0.00,11,Wunderground v.1.15,2013-06-13 00:09:00,
2013-06-12 20:15:00,73.5,50.2,29.83,North,360,1.0,1.0,44,0.00,,,0.00,9,Wunderground v.1.15,2013-06-13 00:15:00,
2013-06-12 20:21:00,73.3,50.7,29.83,North,360,0.0,1.0,45,0.00,,,0.00,7,Wunderground v.1.15,2013-06-13 00:21:00,
2013-06-12 20:27:00,73.3,50.7,29.83,North,360,0.0,0.0,45,0.00,,,0.00,0,Wunderground v.1.15,2013-06-13 00:27:00,
2013-06-12 20:33:00,73.2,51.2,29.83,North,360,0.0,0.0,46,0.00,,,0.00,0,Wunderground v.1.15,2013-06-13 00:33:00,
2013-06-12 20:39:00,72.8,51.4,29.83,North,360,0.0,0.0,47,0.00,,,0.00,0,Wunderground v.1.15,2013-06-13 00:39:00,
2013-06-12 20:47:00,72.5,51.7,29.83,North,360,0.0,0.0,48,0.00,,,0.00,0,Wunderground v.1.15,2013-06-13 00:47:00,
2013-06-12 20:52:00,72.3,51.5,29.83,North,360,0.0,0.0,48,0.00,,,0.00,0,Wunderground v.1.15,2013-06-13 00:52:00,
2013-06-12 20:59:00,72.1,51.3,29.83,North,360,0.0,0.0,48,0.00,,,0.00,0,Wunderground v.1.15,2013-06-13 00:59:00,
2013-06-12 21:04:00,72.0,51.8,29.83,North,360,0.0,1.0,49,0.00,,,0.00,0,Wunderground v.1.15,2013-06-13 01:04:00,
2013-06-12 21:10:00,71.8,52.2,29.83,North,360,0.0,0.0,50,0.00,,,0.00,0,Wunderground v.1.15,2013-06-13 01:10:00,
2013-06-12 21:16:00,71.5,51.9,29.83,North,360,0.0,0.0,50,0.00,,,0.00,0,Wunderground v.1.15,2013-06-13 01:16:00,
2013-06-12 21:22:00,71.3,51.7,29.83,North,360,0.0,0.0,50,0.00,,,0.00,0,Wunderground v.1.15,2013-06-13 01:22:00,
2013-06-12 21:29:00,70.9,51.9,29.83,North,360,0.0,0.0,51,0.00,,,0.00,0,Wunderground v.1.15,2013-06-13 01:29:00,
2013-06-12 21:36:00,70.6,52.1,29.82,North,360,0.0,0.0,52,0.00,,,0.00,0,Wunderground v.1.15,2013-06-13 01:36:00,
2013-06-12 21:43:00,70.3,52.4,29.82,North,360,0.0,0.0,53,0.00,,,0.00,0,Wunderground v.1.15,2013-06-13 01:43:00,
2013-06-12 21:52:00,69.9,52.0,29.83,North,360,0.0,0.0,53,0.00,,,0.00,0,Wunderground v.1.15,2013-06-13 01:52:00,
2013-06-12 22:02:00,69.3,52.9,29.83,North,360,0.0,0.0,56,0.00,,,0.00,0,Wunderground v.1.15,2013-06-13 02:02:00,
2013-06-12 22:13:00,68.8,52.5,29.83,North,360,0.0,0.0,56,0.00,,,0.00,0,Wunderground v.1.15,2013-06-13 02:13:00,
2013-06-12 22:23:00,68.4,52.6,29.82,North,360,0.0,0.0,57,0.00,,,0.00,0,Wunderground v.1.15,2013-06-13 02:23:00,
2013-06-12 22:34:00,68.1,53.2,29.82,North,360,0.0,0.0,59,0.00,,,0.00,0,Wunderground v.1.15,2013-06-13 02:34:00,
2013-06-12 22:43:00,67.8,52.9,29.82,North,360,0.0,0.0,59,0.00,,,0.00,0,Wunderground v.1.15,2013-06-13 02:43:00,
2013-06-12 22:53:00,67.4,53.9,29.82,North,360,0.0,0.0,62,0.00,,,0.00,0,Wunderground v.1.15,2013-06-13 02:53:00,
2013-06-12 23:03:00,66.9,53.9,29.82,North,360,0.0,0.0,63,0.00,,,0.00,0,Wunderground v.1.15,2013-06-13 03:03:00,
2013-06-12 23:13:00,66.6,54.5,29.82,North,360,0.0,0.0,65,0.00,,,0.00,0,Wunderground v.1.15,2013-06-13 03:13:00,
2013-06-12 23:23:00,66.0,54.7,29.82,North,360,0.0,0.0,67,0.00,,,0.00,0,Wunderground v.1.15,2013-06-13 03:23:00,
2013-06-12 23:33:00,65.3,54.9,29.81,North,360,0.0,0.0,69,0.00,,,0.00,0,Wunderground v.1.15,2013-06-13 03:33:00,
2013-06-12 23:43:00,64.7,54.7,29.81,North,360,0.0,0.0,70,0.00,,,0.00,0,Wunderground v.1.15,2013-06-13 03:43:00,
2013-06-12 23:53:00,64.3,55.1,29.81,North,360,0.0,0.0,72,0.00,,,0.00,0,Wunderground v.1.15,2013-06-13 03:53:00,